{"data":{"norad_id":52833,"intl_designator":"2022-062D","name":"STARLINK-4086","alt_names":[],"object_type":"PAYLOAD","status":"ACTIVE","operator":null,"country":"US","launch_date":"2022-06-17","launch_site_code":"AFETR","launch_vehicle":null,"mission":null,"orbit_class":"UNKNOWN","rcs_meters":null,"size_class":null,"mass_kg":null,"dimensions":null,"purposes":["comms"],"wikipedia_slug":null,"has_3d_model":false,"image_url":null,"decayed_at":null,"tle_current":{"epoch":"2026-05-25T03:26:21.414624Z","epoch_age_seconds":62018,"freshness":"FRESH","line1":"1 52833U 22062D   26145.14330341 -.00002425  00000+0 -13429-3 0  9996","line2":"2 52833  53.2148  50.9036 0001528  74.9229 285.1932 15.08851822217323","mean_motion":15.08851822,"eccentricity":0.0001528,"inclination_deg":53.2148,"raan_deg":50.9036,"arg_perigee_deg":74.9229,"mean_anomaly_deg":285.1932,"bstar":-0.00013429,"rev_number":21732,"period_min":95.436806915292,"perigee_km":538.65020747348,"apogee_km":540.76430067753,"semimajor_km":6917.8442540755,"source":"CELESTRAK","updated_at":"2026-05-25T13:38:17.240781Z"}}}